Weather History for KPKD - June, 2013

Change the Weather History Date:

Saturday, June 1, 2013

  Actual Average Record
Temperature  
Mean Temperature 53 °F -  
Max Temperature 60 °F 74 °F 88 °F (1986)
Min Temperature 46 °F 47 °F 32 °F (1979)
Degree Days  
Heating Degree Days 12    
Growing Degree Days 3 (Base 50)    
Moisture  
Dew Point 46 °F    
Average Humidity 81    
Maximum Humidity 94    
Minimum Humidity 62    
Precipitation  
Precipitation 0.00 in - - ()
Sea Level Pressure  
Sea Level Pressure 29.79 in    
Wind  
Wind Speed 11 mph (North)    
Max Wind Speed 21 mph    
Max Gust Speed 29 mph    
Visibility 9 miles    
Events      
Averages and records for this station are not official NWS values.
T = Trace of Precipitation, MM = Missing Value Source: NWS Daily Summary

Daily Weather History Graph

Daily Weather History Graph

Search for Another Location

Airport or City:

Trip Planner

Search our weather history database for the weather conditions in past years. The results will help you decide how hot, cold, wet, or windy it might be!

Date:

Astronomy

Jun. 01, 2013 Rise Set
Actual Time 5:29 AM CDT 9:07 PM CDT
Civil Twilight 4:50 AM CDT 9:46 PM CDT
Nautical Twilight 3:59 AM CDT 10:37 PM CDT
Astronomical Twilight 2:49 AM CDT 11:48 PM CDT
Moon 1:50 AM CDT (6/1) 2:14 PM CDT (6/1)
Length of Visible Light 16h 55m
Length of Day
15h 38m
Last Quarter, 40% of the Moon is Illuminated
Jun 1
Last Quarter
Jun 8
New
Jun 16
First Quarter
Jun 23
Full
Jun 29
Last Quarter

Hourly Weather History & Observations

Time (CDT) Temp. Windchill Dew Point Humidity Pressure Visibility Wind Dir Wind Speed Gust Speed Precip Events Conditions
12:53 AM 60.1 °F - 52.0 °F 75% 29.58 in 10.0 mi NNE 5.8 mph - N/A   Overcast
1:53 AM 59.0 °F - 53.1 °F 81% 29.58 in 10.0 mi North 5.8 mph - N/A   Overcast
2:53 AM 57.9 °F - 53.1 °F 84% 29.60 in 10.0 mi North 5.8 mph - N/A   Overcast
3:53 AM 57.0 °F - 54.0 °F 89% 29.61 in 10.0 mi North 6.9 mph - 0.00 in   Overcast
4:07 AM 57.2 °F - 53.6 °F 88% 29.60 in 10.0 mi North 9.2 mph - N/A   Overcast
4:23 AM 57.2 °F - 55.4 °F 94% 29.60 in 10.0 mi North 8.1 mph - N/A   Overcast
4:51 AM 57.2 °F - 55.4 °F 94% 29.61 in 10.0 mi North 10.4 mph - N/A   Overcast
4:53 AM 57.0 °F - 55.0 °F 93% 29.61 in 10.0 mi North 10.4 mph - N/A   Overcast
5:05 AM 57.2 °F - 55.4 °F 94% 29.61 in 10.0 mi North 11.5 mph - N/A   Overcast
5:53 AM 55.9 °F - 54.0 °F 93% 29.64 in 10.0 mi North 11.5 mph - N/A   Overcast
6:04 AM 55.4 °F - 53.6 °F 94% 29.65 in 10.0 mi North 11.5 mph - N/A   Overcast
6:42 AM 51.8 °F - 50.0 °F 94% 29.66 in 10.0 mi North 15.0 mph - N/A   Overcast
6:53 AM 52.0 °F - 50.0 °F 93% 29.68 in 10.0 mi North 18.4 mph - N/A   Overcast
7:53 AM 51.1 °F - 48.0 °F 89% 29.69 in 10.0 mi North 16.1 mph 23.0 mph 0.00 in   Overcast
8:27 AM 51.8 °F - 46.4 °F 82% 29.70 in 10.0 mi North 16.1 mph - N/A   Overcast
8:53 AM 50.0 °F - 46.0 °F 86% 29.73 in 10.0 mi North 15.0 mph - N/A   Overcast
9:53 AM 48.9 °F - 46.0 °F 90% 29.76 in 5.0 mi North 11.5 mph 19.6 mph N/A   Overcast
10:14 AM 48.2 °F - 46.4 °F 93% 29.75 in 3.0 mi North 11.5 mph - N/A   Overcast
10:23 AM 48.2 °F - 46.4 °F 93% 29.75 in 2.0 mi NNW 12.7 mph - N/A   Overcast
10:37 AM 48.2 °F - 44.6 °F 87% 29.76 in 8.0 mi North 15.0 mph - N/A   Overcast
10:49 AM 48.2 °F - 44.6 °F 87% 29.76 in 9.0 mi NNW 15.0 mph 20.7 mph N/A   Overcast
10:53 AM 48.9 °F - 45.0 °F 86% 29.78 in 9.0 mi North 17.3 mph 23.0 mph N/A   Overcast
11:53 AM 48.0 °F - 43.0 °F 83% 29.81 in 10.0 mi North 16.1 mph 21.9 mph 0.00 in   Overcast
12:53 PM 48.0 °F - 42.1 °F 80% 29.83 in 10.0 mi North 20.7 mph 28.8 mph 0.00 in   Overcast
1:09 PM 46.4 °F 39.2 °F 42.8 °F 87% 29.83 in 10.0 mi North 18.4 mph 28.8 mph 0.00 in   Overcast
1:53 PM 48.0 °F - 41.0 °F 77% 29.86 in 10.0 mi North 13.8 mph 25.3 mph 0.00 in   Overcast
2:53 PM 48.9 °F - 42.1 °F 77% 29.88 in 10.0 mi North 16.1 mph 23.0 mph N/A   Overcast
3:53 PM 51.1 °F - 42.1 °F 71% 29.89 in 10.0 mi NNW 18.4 mph 25.3 mph N/A   Overcast
4:30 PM 53.6 °F - 41.0 °F 62% 29.89 in 10.0 mi NNE 12.7 mph 24.2 mph N/A   Overcast
4:53 PM 53.1 °F - 41.0 °F 64% 29.90 in 10.0 mi North 17.3 mph - N/A   Overcast
5:53 PM 54.0 °F - 43.0 °F 66% 29.92 in 10.0 mi North 17.3 mph 27.6 mph N/A   Mostly Cloudy
6:53 PM 54.0 °F - 43.0 °F 66% 29.93 in 10.0 mi North 15.0 mph - 0.00 in   Mostly Cloudy
7:53 PM 51.1 °F - 43.0 °F 74% 29.97 in 10.0 mi North 18.4 mph 24.2 mph 0.00 in   Overcast
8:05 PM 51.8 °F - 42.8 °F 71% 29.95 in 10.0 mi North 15.0 mph - N/A   Overcast
8:53 PM 51.1 °F - 41.0 °F 68% 29.99 in 10.0 mi North 15.0 mph - N/A   Overcast
9:53 PM 51.1 °F - 41.0 °F 68% 30.02 in 10.0 mi North 11.5 mph - N/A   Overcast
10:01 PM 51.8 °F - 41.0 °F 67% 30.00 in 10.0 mi North 13.8 mph - N/A   Overcast
10:14 PM 51.8 °F - 41.0 °F 67% 30.00 in 10.0 mi North 10.4 mph - N/A   Overcast
10:53 PM 51.1 °F - 39.9 °F 66% 30.04 in 10.0 mi NNW 10.4 mph - N/A   Overcast
11:53 PM 50.0 °F - 39.0 °F 66% 30.06 in 10.0 mi NNE 8.1 mph 17.3 mph N/A   Overcast